Chicago, IL

4:20 PM CST on January 17, 2018 (GMT -0600)
Chicago-O'Hare International

Weather History for KORD - March, 2013

Change the Weather History Date:

Monday, March 4, 2013

  Actual Average Record
Temperature  
Mean Temperature 26 °F 34 °F  
Max Temperature 34 °F 42 °F 73 °F (1983)
Min Temperature 18 °F 26 °F -12 °F (1873)
Degree Days  
Heating Degree Days 39 31  
Month to date heating degree days 157 128  
Since 1 July heating degree days 4559 4862  
Cooling Degree Days 0 0  
Month to date cooling degree days 0 0  
Year to date cooling degree days 0 0  
Moisture  
Dew Point 20 °F    
Average Humidity 71    
Maximum Humidity 84    
Minimum Humidity 58    
Precipitation  
Precipitation T in 0.08 in 1.75 in (1985)
Month to date precipitation 0.02 0.31  
Year to date precipitation 6.61 3.83  
Snow  
Snow 0.00 in 0.30 in 8.50 in (1982)
Month to date snowfall 0.7 1.0  
Since 1 July snowfall 20.3 30.5  
Snow Depth 3.00 in    
Sea Level Pressure  
Sea Level Pressure 30.07 in    
Wind  
Wind Speed 8 mph (East)    
Max Wind Speed 17 mph    
Max Gust Speed 23 mph    
Visibility 10 miles    
Events      
T = Trace of Precipitation, MM = Missing Value Source: NWS Daily Summary

Daily Weather History Graph

Daily Weather History Graph

Search for Another Location

Airport or City:

Trip Planner

Search our weather history database for the weather conditions in past years. The results will help you decide how hot, cold, wet, or windy it might be!

Date:

Astronomy

Mar. 04, 2013 Rise Set
Actual Time 6:21 AM CST 5:45 PM CST
Civil Twilight 5:53 AM CST 6:13 PM CST
Nautical Twilight 5:21 AM CST 6:45 PM CST
Astronomical Twilight 4:48 AM CST 7:18 PM CST
Moon 12:34 AM CST (3/4) 10:22 AM CST (3/4)
Length of Visible Light 12h 20m
Length of Day
11h 24m
Waning Gibbous, 52% of the Moon is Illuminated
Mar 4
Waning Gibbous
Mar 4
Last Quarter
Mar 11
New
Mar 19
First Quarter
Mar 27
Full

Hourly Weather History & Observations

Time (CST) Temp. Windchill Dew Point Humidity Pressure Visibility Wind Dir Wind Speed Gust Speed Precip Events Conditions
12:51 AM 21.9 °F 17.2 °F 15.1 °F 75% 30.12 in 10.0 mi North 3.5 mph - N/A   Mostly Cloudy
1:51 AM 19.9 °F - 16.0 °F 85% 30.13 in 10.0 mi Calm Calm - N/A   Mostly Cloudy
2:51 AM 19.4 °F - 15.8 °F 86% 30.10 in 10.0 mi Calm Calm - N/A   Mostly Cloudy
3:51 AM 19.0 °F - 14.0 °F 81% 30.12 in 10.0 mi Calm Calm - N/A   Mostly Cloudy
4:51 AM 19.0 °F - 14.0 °F 81% 30.13 in 10.0 mi Calm Calm - N/A   Mostly Cloudy
5:51 AM 21.2 °F 14.9 °F 15.8 °F 80% 30.09 in 10.0 mi NE 4.6 mph - N/A   Mostly Cloudy
6:51 AM 24.1 °F 18.2 °F 17.1 °F 75% 30.12 in 10.0 mi East 4.6 mph - N/A   Mostly Cloudy
7:51 AM 27.0 °F 19.5 °F 19.0 °F 72% 30.12 in 10.0 mi East 6.9 mph - N/A   Overcast
8:51 AM 28.9 °F 18.2 °F 19.9 °F 69% 30.11 in 10.0 mi ESE 13.8 mph - N/A   Overcast
9:51 AM 30.0 °F 19.1 °F 21.9 °F 72% 30.11 in 10.0 mi ESE 15.0 mph - N/A   Overcast
10:51 AM 30.0 °F 18.3 °F 21.9 °F 72% 30.10 in 10.0 mi East 17.3 mph - N/A   Overcast
11:51 AM 30.9 °F 22.2 °F 21.0 °F 67% 30.09 in 10.0 mi ESE 10.4 mph - N/A   Overcast
12:51 PM 30.2 °F 21.3 °F 17.6 °F 60% 30.04 in 10.0 mi East 10.4 mph - N/A   Overcast
1:51 PM 30.9 °F 21.7 °F 17.1 °F 57% 30.05 in 10.0 mi East 11.5 mph - N/A   Overcast
2:51 PM 30.9 °F 22.8 °F 19.0 °F 61% 30.05 in 10.0 mi East 9.2 mph - N/A   Overcast
3:51 PM 30.9 °F 21.7 °F 19.9 °F 64% 30.04 in 10.0 mi ENE 11.5 mph 21.9 mph N/A   Overcast
4:51 PM 30.9 °F 20.7 °F 21.0 °F 67% 30.02 in 10.0 mi ENE 13.8 mph - 0.00 in   Overcast
5:51 PM 32.0 °F 23.0 °F 21.9 °F 66% 30.03 in 10.0 mi ENE 11.5 mph 23.0 mph N/A   Overcast
6:51 PM 32.0 °F 23.6 °F 23.0 °F 69% 30.03 in 10.0 mi ENE 10.4 mph 17.3 mph N/A   Overcast
7:51 PM 33.1 °F 26.1 °F 24.1 °F 70% 30.03 in 10.0 mi East 8.1 mph - N/A   Overcast
8:51 PM 33.8 °F 25.8 °F 24.8 °F 70% 30.02 in 10.0 mi East 10.4 mph - N/A   Overcast
9:51 PM 34.0 °F 25.5 °F 21.9 °F 61% 30.04 in 10.0 mi East 11.5 mph 18.4 mph N/A   Overcast
10:51 PM 33.1 °F 24.4 °F 24.1 °F 70% 30.02 in 10.0 mi East 11.5 mph - N/A   Overcast
11:51 PM 33.1 °F 24.4 °F 24.1 °F 70% 30.00 in 10.0 mi East 11.5 mph - N/A   Overcast